Stewartville, MN

5:35 PM CST on December 02, 2016 (GMT -0600)
Rochester International

Weather History for KRST - March, 2014

Change the Weather History Date:

Monday, March 17, 2014

  Actual Average Record
Temperature  
Mean Temperature 27 °F 33 °F  
Max Temperature 34 °F 41 °F 81 °F (2012)
Min Temperature 20 °F 25 °F -10 °F (1909)
Degree Days  
Heating Degree Days 38 32  
Month to date heating degree days 773 610  
Since 1 July heating degree days 7498 6471  
Cooling Degree Days 0 0  
Month to date cooling degree days 0 0  
Year to date cooling degree days 0 0  
Moisture  
Dew Point 17 °F    
Average Humidity 69    
Maximum Humidity 74    
Minimum Humidity 63    
Precipitation  
Precipitation 0.00 in 0.07 in 0.58 in (1986)
Month to date precipitation 0.64 0.88  
Year to date precipitation 3.40 2.57  
Snow  
Snow 0.00 in 0.30 in 8.20 in (1942)
Month to date snowfall 5.5 5.6  
Since 1 July snowfall 53.3 45.5  
Snow Depth 5.00 in    
Sea Level Pressure  
Sea Level Pressure 29.78 in    
Wind  
Wind Speed 18 mph (SSE)    
Max Wind Speed 30 mph    
Max Gust Speed 37 mph    
Visibility 10 miles    
Events      
T = Trace of Precipitation, MM = Missing Value Source: NWS Daily Summary

Daily Weather History Graph

Daily Weather History Graph

Search for Another Location

Airport or City:

Trip Planner

Search our weather history database for the weather conditions in past years. The results will help you decide how hot, cold, wet, or windy it might be!

Date:

Astronomy

Mar. 17, 2014 Rise Set
Actual Time 7:18 AM CDT 7:18 PM CDT
Civil Twilight 6:49 AM CDT 7:47 PM CDT
Nautical Twilight 6:16 AM CDT 8:21 PM CDT
Astronomical Twilight 5:42 AM CDT 8:55 PM CDT
Moon 8:39 PM CDT (3/17) 7:31 AM CDT (3/17)
Length of Visible Light 12h 57m
Length of Day
12h 00m
Full, 99% of the Moon is Illuminated
Mar 17
Full
Mar 23
Last Quarter
Mar 30
New
Apr 7
First Quarter
Apr 15
Full

Hourly Weather History & Observations

Time (CDT) Temp. Windchill Dew Point Humidity Pressure Visibility Wind Dir Wind Speed Gust Speed Precip Events Conditions
12:54 AM 19.9 °F 5.7 °F 10.0 °F 65% 30.08 in 10.0 mi South 16.1 mph - N/A   Overcast
1:54 AM 19.9 °F 5.7 °F 10.9 °F 68% 30.04 in 10.0 mi South 16.1 mph 25.3 mph N/A   Overcast
2:54 AM 19.9 °F 4.3 °F 10.9 °F 68% 29.99 in 10.0 mi South 19.6 mph - N/A   Overcast
3:54 AM 19.9 °F 4.8 °F 12.0 °F 71% 29.96 in 10.0 mi South 18.4 mph - N/A   Mostly Cloudy
4:54 AM 19.9 °F 3.5 °F 12.0 °F 71% 29.92 in 10.0 mi South 21.9 mph 26.5 mph N/A   Mostly Cloudy
5:54 AM 19.9 °F 4.3 °F 12.0 °F 71% 29.88 in 10.0 mi South 19.6 mph - N/A   Clear
6:54 AM 19.9 °F 4.3 °F 12.9 °F 74% 29.86 in 10.0 mi South 19.6 mph 29.9 mph N/A   Overcast
7:54 AM 19.9 °F 4.8 °F 12.0 °F 71% 29.85 in 10.0 mi South 18.4 mph 27.6 mph N/A   Overcast
8:54 AM 21.0 °F 4.6 °F 12.0 °F 68% 29.82 in 10.0 mi South 23.0 mph - N/A   Overcast
9:54 AM 21.9 °F 5.5 °F 14.0 °F 72% 29.79 in 10.0 mi South 24.2 mph 29.9 mph N/A   Mostly Cloudy
10:54 AM 23.0 °F 7.6 °F 15.1 °F 72% 29.74 in 10.0 mi South 21.9 mph 35.7 mph 0.00 in   Overcast
11:54 AM 26.1 °F 9.8 °F 17.1 °F 69% 29.71 in 10.0 mi South 28.8 mph 35.7 mph N/A   Partly Cloudy
12:54 PM 28.0 °F 14.3 °F 19.0 °F 69% 29.70 in 10.0 mi South 21.9 mph 28.8 mph N/A   Mostly Cloudy
1:54 PM 28.9 °F 15.1 °F 19.9 °F 69% 29.70 in 10.0 mi South 23.0 mph 28.8 mph N/A   Mostly Cloudy
2:54 PM 30.9 °F 18.7 °F 21.9 °F 69% 29.68 in 10.0 mi South 19.6 mph 25.3 mph N/A   Partly Cloudy
3:54 PM 33.1 °F 22.2 °F 23.0 °F 66% 29.65 in 10.0 mi SSE 17.3 mph 25.3 mph N/A   Clear
4:54 PM 34.0 °F 23.0 °F 24.1 °F 67% 29.65 in 10.0 mi South 18.4 mph - N/A   Clear
5:54 PM 34.0 °F 24.6 °F 24.1 °F 67% 29.66 in 10.0 mi SE 13.8 mph - N/A   Clear
6:54 PM 33.1 °F 23.4 °F 24.1 °F 70% 29.65 in 10.0 mi SE 13.8 mph - N/A   Clear
7:54 PM 30.9 °F 22.8 °F 23.0 °F 72% 29.68 in 10.0 mi ESE 9.2 mph - N/A   Clear
8:54 PM 32.0 °F 22.1 °F 21.9 °F 66% 29.66 in 10.0 mi SE 13.8 mph - N/A   Clear
9:54 PM 32.0 °F 21.6 °F 21.9 °F 66% 29.66 in 10.0 mi SE 15.0 mph - N/A   Clear
10:54 PM 32.0 °F 21.2 °F 21.9 °F 66% 29.67 in 10.0 mi SSE 16.1 mph - N/A   Clear
11:54 PM 32.0 °F 21.6 °F 21.9 °F 66% 29.67 in 10.0 mi SSE 15.0 mph - N/A   Clear